EDT,Max TemperatureF,Mean TemperatureF,Min TemperatureF,Max Dew PointF,MeanDew PointF,Min DewpointF,Max Humidity, Mean Humidity, Min Humidity, Max Sea Level PressureIn, Mean Sea Level PressureIn, Min Sea Level PressureIn, Max VisibilityMiles, Mean VisibilityMiles, Min VisibilityMiles, Max Wind SpeedMPH, Mean Wind SpeedMPH, Max Gust SpeedMPH,PrecipitationIn, CloudCover, Events, WindDirDegrees
2011-10-1,57,50,43,54,42,39,96,84,71,29.97,29.89,29.72,10,7,2,25,16,33,0.85,8,Rain,346
2011-10-2,51,48,44,49,46,42,93,90,86,29.96,29.94,29.92,10,8,2,17,10,22,0.26,8,Rain,341
2011-10-3,59,54,49,54,51,47,100,90,80,30.07,30.04,29.96,10,8,1,15,4,21,0.08,8,Rain,12
2011-10-4,60,56,52,54,52,49,100,89,77,30.08,30.06,30.04,10,10,9,17,8,22,0.01,8,Rain,349
2011-10-5,60,53,45,50,42,29,93,63,33,30.28,30.11,30.02,10,10,7,29,10,35,T,5,Rain,338
2011-10-6,57,46,34,33,30,28,85,69,53,30.39,30.33,30.29,10,10,10,16,6,21,0.00,0,,327
2011-10-7,63,48,32,47,44,41,93,71,48,30.44,30.39,30.35,10,10,10,15,3,20,0.00,1,,153
2011-10-8,70,56,41,56,48,40,96,75,53,30.45,30.38,30.32,10,10,10,14,4,,0.00,0,,150
2011-10-9,76,62,48,57,52,46,93,72,50,30.36,30.29,30.22,10,9,2,13,4,28,0.00,0,,154
2011-10-10,77,64,50,56,50,39,83,60,36,30.24,30.20,30.17,10,10,10,15,5,18,0.00,1,,279
2011-10-11,63,54,44,47,40,35,93,66,39,30.28,30.22,30.19,10,10,10,10,4,13,0.00,0,,9
2011-10-12,67,54,41,49,44,39,93,73,52,30.18,30.11,30.02,10,10,10,18,6,24,0.00,1,,160
2011-10-13,65,58,51,55,51,42,93,77,61,30.01,29.86,29.74,10,10,9,13,5,18,0.12,6,Rain,142
2011-10-14,68,63,57,61,58,53,97,88,78,29.70,29.43,29.20,10,8,2,10,3,13,0.94,8,Rain,155
2011-10-15,60,53,46,52,42,37,86,66,46,29.47,29.34,29.22,10,10,9,17,8,31,0.14,6,Rain,196
2011-10-16,60,53,46,46,39,33,93,65,36,29.67,29.58,29.48,10,10,10,15,6,24,0.17,7,Rain,216
2011-10-17,57,49,41,43,39,36,89,68,47,29.66,29.58,29.52,10,10,5,15,4,26,0.05,6,Rain,194
2011-10-18,57,51,45,44,41,39,93,72,51,29.93,29.79,29.66,10,10,10,10,3,18,0.01,6,Rain,194
2011-10-19,60,51,42,47,44,41,92,73,53,29.98,29.88,29.68,10,10,10,16,4,20,0.01,6,Rain,26
2011-10-20,67,58,49,55,51,39,93,78,63,29.63,29.41,29.27,10,9,2,15,4,22,0.38,7,Rain,184
2011-10-21,57,52,47,45,43,39,93,78,62,29.91,29.73,29.56,10,10,10,12,3,21,0.06,8,Rain,208
2011-10-22,52,44,35,42,39,35,92,77,61,30.07,29.99,29.91,10,10,10,9,1,15,T,7,Rain,259
2011-10-23,52,42,32,40,36,31,100,75,50,30.12,30.09,30.06,10,10,7,7,1,9,0.00,5,,184
2011-10-24,61,46,31,48,39,30,96,72,47,30.10,29.97,29.81,10,9,5,23,6,31,0.11,2,Rain,167
2011-10-25,54,46,38,45,37,29,100,71,41,30.01,29.92,29.85,10,8,0,17,5,26,0.02,4,Fog-Rain,259
2011-10-26,49,44,38,39,35,29,85,73,60,30.01,29.89,29.81,10,10,10,17,4,21,0.00,6,,342
2011-10-27,39,37,35,29,24,21,64,56,48,29.96,29.87,29.82,10,10,10,16,9,21,0.00,7,,344
2011-10-28,47,38,28,25,21,17,78,55,31,30.28,30.15,30.00,10,10,10,16,4,22,0.00,2,,294
2011-10-29,41,33,25,29,24,22,85,65,44,30.28,30.19,30.05,10,10,10,15,6,18,0.00,3,,12
2011-10-30,49,42,34,27,23,16,70,48,26,30.27,30.13,30.03,10,10,2,18,8,23,T,3,Rain-Snow,328
2011-10-31,50,41,31,35,30,28,89,69,49,30.36,30.31,30.27,10,10,10,17,5,23,0.00,4,,157